Tracking 17828 objects as of 31-July-2016
HD Live streaming from Space Station
objects crossing your sky now

N-1 R/B

Track N-1 R/B now!
10-day predictions


NORAD ID: 8710
Int'l Code: 1976-019B
Perigee: 995.8 km
Apogee: 1,018.8 km
Inclination: 69.7 °
Period: 105.1 minutes
Semi major axis: 7378 km
RCS: 1.547 m2 (large)
Launch date: February 29, 1976
Source: Japan (JPN)
Launch site: TANEGASHIMA SPACE CENTER (TNSTA)

Note: This is a ROCKET BODY
Your satellite tracking list
Your tracking list is empty





NASA's NSSDC Master Catalog

Two Line Element Set (TLE):
1 08710U 76019B   16212.84606456 -.00000061  00000-0 -10775-4 0  9993
2 08710  69.6770 148.2808 0015609 293.2727  98.4640 13.69832928 21158
Source of the keplerian elements: AFSPC

N2YO: 900